Chippewa, MI

1:38 AM EDT on October 16, 2019 (GMT -0400)
Chippewa County International

Weather History for KCIU - August, 2019

Change the Weather History Date:

Sunday, August 11, 2019

  Actual Average Record
Temperature  
Mean Temperature 70 °F -  
Max Temperature 82 °F 75 °F 82 °F (1992)
Min Temperature 57 °F 48 °F 39 °F (1982)
Cooling Degree Days 4    
Growing Degree Days 20 (Base 50)    
Moisture  
Dew Point 61 °F    
Average Humidity 84    
Maximum Humidity 100    
Minimum Humidity 47    
Precipitation  
Precipitation 0.00 in - - ()
Sea Level Pressure  
Sea Level Pressure 29.97 in    
Wind  
Wind Speed 6 mph (SW)    
Max Wind Speed 16 mph    
Max Gust Speed 22 mph    
Visibility 6 miles    
Events Fog    
Averages and records for this station are not official NWS values.
T = Trace of Precipitation, MM = Missing Value Source: NWS Daily Summary

Daily Weather History Graph

Daily Weather History Graph

Search for Another Location

Airport or City:

Astronomy

Aug. 11, 2019 Rise Set
Actual Time 6:31 AM EDT 8:53 PM EDT
Civil Twilight 5:58 AM EDT 9:27 PM EDT
Nautical Twilight 5:16 AM EDT 10:08 PM EDT
Astronomical Twilight 4:29 AM EDT 10:55 PM EDT
Moon 6:40 PM EDT (8/11) 2:44 AM EDT (8/11)
Length of Visible Light 15h 28m
Length of Day
14h 22m
Waxing Gibbous, 87% of the Moon is Illuminated
Aug 11
Waxing Gibbous
Aug 15
Full
Aug 23
Last Quarter
Aug 30
New
Sep 5
First Quarter

Hourly Weather History & Observations

Time (EDT) Temp. Heat Index Dew Point Humidity Pressure Visibility Wind Dir Wind Speed Gust Speed Precip Events Conditions
12:56 AM 60.1 °F - 57.0 °F 90% 29.98 in 10.0 mi SW 4.6 mph - N/A   Clear
1:56 AM 57.9 °F - 55.9 °F 93% 29.98 in 10.0 mi SSW 3.5 mph - N/A   Clear
2:56 AM 59.0 °F - 57.9 °F 96% 29.98 in 10.0 mi SSW 4.6 mph - N/A   Clear
3:56 AM 59.0 °F - 57.9 °F 96% 29.98 in 10.0 mi SW 5.8 mph - N/A   Clear
4:56 AM 60.1 °F - 59.0 °F 96% 29.97 in 10.0 mi SW 4.6 mph - N/A   Clear
5:11 AM 60.8 °F - 60.8 °F 100% 29.98 in 1.8 mi SSW 4.6 mph - N/A   Clear
5:14 AM 59.0 °F - 59.0 °F 100% 29.98 in 0.8 mi SW 4.6 mph - N/A   Clear
5:23 AM 60.8 °F - 60.8 °F 100% 29.98 in 0.5 mi SSW 3.5 mph - N/A Fog Fog
5:33 AM 60.8 °F - 60.8 °F 100% 29.98 in 0.8 mi SSW 3.5 mph - N/A   Mist
5:37 AM 60.8 °F - 60.8 °F 100% 29.98 in 1.2 mi SSW 5.8 mph - N/A   Scattered Clouds
5:42 AM 60.8 °F - 60.8 °F 100% 29.98 in 2.0 mi SSW 4.6 mph - N/A   Mostly Cloudy
5:54 AM 60.8 °F - 60.8 °F 100% 29.98 in 3.0 mi SSW 3.5 mph - N/A   Mostly Cloudy
5:56 AM 60.1 °F - 60.1 °F 100% 29.97 in 3.0 mi SSW 3.5 mph - N/A   Mostly Cloudy
6:13 AM 60.8 °F - 60.8 °F 100% 29.98 in 10.0 mi Variable 4.6 mph - N/A   Scattered Clouds
6:42 AM 59.0 °F - 59.0 °F 100% 29.99 in 1.8 mi SSW 3.5 mph - N/A   Clear
6:46 AM 60.8 °F - 59.0 °F 94% 29.99 in 0.8 mi SSW 4.6 mph - N/A   Clear
6:54 AM 60.8 °F - 60.8 °F 100% 29.99 in 0.5 mi SW 4.6 mph - N/A Fog Fog
6:56 AM 60.1 °F - 60.1 °F 100% 29.98 in 0.5 mi SSW 3.5 mph - N/A Fog Fog
7:06 AM 60.8 °F - 60.8 °F 100% 29.99 in 0.5 mi Variable 4.6 mph - N/A Fog Fog
7:15 AM 60.8 °F - 60.8 °F 100% 29.99 in 1.0 mi SSW 4.6 mph - N/A   Mostly Cloudy
7:18 AM 60.8 °F - 60.8 °F 100% 29.98 in 2.0 mi SSW 4.6 mph - N/A   Mostly Cloudy
7:20 AM 60.8 °F - 60.8 °F 100% 29.98 in 4.0 mi SSW 4.6 mph - N/A   Scattered Clouds
7:56 AM 64.0 °F - 63.0 °F 96% 29.98 in 10.0 mi SSW 4.6 mph - N/A   Clear
8:56 AM 68.0 °F - 64.0 °F 87% 29.99 in 10.0 mi SW 6.9 mph - N/A   Clear
9:56 AM 72.0 °F - 63.0 °F 73% 29.98 in 10.0 mi West 12.7 mph 16.1 mph N/A   Clear
10:56 AM 75.0 °F - 63.0 °F 66% 29.98 in 10.0 mi WSW 13.8 mph - N/A   Clear
11:56 AM 79.0 °F - 62.1 °F 56% 29.97 in 10.0 mi WSW 16.1 mph - N/A   Clear
12:56 PM 79.0 °F - 61.0 °F 54% 29.97 in 10.0 mi WSW 9.2 mph 18.4 mph N/A   Clear
1:56 PM 82.0 °F 82.4 °F 60.1 °F 47% 29.96 in 10.0 mi WSW 15.0 mph 20.7 mph N/A   Partly Cloudy
2:56 PM 81.0 °F 81.7 °F 61.0 °F 50% 29.95 in 10.0 mi SW 12.7 mph 21.9 mph N/A   Partly Cloudy
3:56 PM 81.0 °F 81.7 °F 61.0 °F 50% 29.94 in 10.0 mi SW 12.7 mph 17.3 mph N/A   Clear
4:56 PM 81.0 °F 81.7 °F 61.0 °F 50% 29.94 in 10.0 mi WSW 11.5 mph 21.9 mph N/A   Mostly Cloudy
5:56 PM 78.1 °F - 60.1 °F 54% 29.93 in 10.0 mi WSW 8.1 mph - N/A   Overcast
6:56 PM 75.9 °F - 61.0 °F 60% 29.93 in 10.0 mi West 8.1 mph - N/A   Mostly Cloudy
7:56 PM 73.9 °F - 62.1 °F 66% 29.93 in 10.0 mi WSW 5.8 mph - N/A   Overcast
8:56 PM 72.0 °F - 61.0 °F 68% 29.94 in 10.0 mi WSW 5.8 mph - N/A   Overcast
9:56 PM 69.1 °F - 61.0 °F 75% 29.93 in 10.0 mi SW 4.6 mph - N/A   Overcast
10:56 PM 66.9 °F - 62.1 °F 84% 29.94 in 10.0 mi WSW 4.6 mph - N/A   Clear